This demonstration page uses our WeatherBlox Daily Observations layout. Learn more.

Left ArrowRight Arrow

34.74481, -87.66753

Hourly Observations for July 21, 2019

Temp ( °F °C ) Dew Point ( °F °C ) Humidity (%) Winds ( mph kmh ) Pressure ( in mb ) Visibility ( mi km ) Precip ( " mm )
12:53 am 00:53 Mostly Clear 76 24.4 73 22.8 91 91 SW 5 7 29.98 1015 10 16 0.00 0.00
1:53 am 01:53 Mostly Clear 76 24.4 72 22.2 88 88 SW 3 6 29.99 1016 10 16 0.00 0.00
2:05 am 02:05 Mostly Cloudy 76 24.4 72 22.2 88 88 Calm 30.00 1016 10 16 0.00 0.00
2:17 am 02:17 Mostly Cloudy 76 24.4 72 22.2 88 88 SW 3 6 30.00 1016 10 16 0.00 0.00
2:27 am 02:27 Partly Cloudy 76 24.4 72 22.2 88 88 WSW 3 6 30.00 1016 10 16 0.00 0.00
2:53 am 02:53 Mostly Clear 75 23.9 72 22.2 90 90 S 3 6 29.98 1015 10 16 0.00 0.00
3:53 am 03:53 Partly Cloudy 75 23.9 72 22.2 90 90 Calm 30.01 1016 10 16 0.00 0.00
4:01 am 04:01 Mostly Cloudy 75 23.9 72 22.2 90 90 Calm 30.01 1016 10 16 0.00 0.00
4:53 am 04:53 Cloudy 76 24.4 72 22.2 88 88 Calm 30.00 1016 10 16 0.00 0.00
5:40 am 05:40 Mostly Clear 75 23.9 72 22.2 90 90 S 3 6 29.99 1016 10 16 0.00 0.00
5:53 am 05:53 Mostly Sunny 75 23.9 72 22.2 90 90 S 3 6 30.00 1016 10 16 0.00 0.00
6:03 am 06:03 Mostly Cloudy 75 23.9 72 22.2 90 90 SSE 3 6 30.01 1016 10 16 0.00 0.00
6:53 am 06:53 Cloudy 76 24.4 73 22.8 91 91 SW 6 9 30.02 1017 10 16 0.00 0.00
7:53 am 07:53 Cloudy 77 25 73 22.8 88 88 SW 6 9 30.02 1017 10 16 0.00 0.00
8:53 am 08:53 Cloudy 79 26.1 73 22.8 82 82 SSW 7 11 30.03 1017 10 16 0.00 0.00
9:04 am 09:04 Cloudy 80 26.7 73 22.8 79 79 SW 7 11 30.02 1017 10 16 0.00 0.00
9:53 am 09:53 Cloudy 81 27.2 73 22.8 77 77 SSW 3 6 30.03 1017 10 16 0.00 0.00
10:02 am 10:02 Cloudy 81 27.2 73 22.8 77 77 SSW 5 7 30.02 1017 10 16 0.00 0.00
10:53 am 10:53 Cloudy with Light Rain 79 26.1 75 23.9 88 88 WNW 5 7 30.04 1017 10 16 0.00 0.03
11:53 am 11:53 Mostly Cloudy 84 28.9 73 22.8 70 70 Calm 30.03 1017 10 16 0.00 0.03
12:43 pm 12:43 Cloudy 85 29.4 73 22.8 68 68 Calm 30.01 1016 10 16 0.00 0.00
12:53 pm 12:53 Mostly Cloudy 84 28.9 75 23.9 74 74 NNE 3 6 30.01 1016 10 16 0.00 0.00
1:10 pm 13:10 Cloudy with Heavy Rain 81 27.2 76 24.4 85 85 N 3 6 30.00 1016 10 16 0.01 0.25
1:24 pm 13:24 Cloudy with Rain 81 27.2 77 25 88 88 NNE 5 7 30.00 1016 10 16 0.03 0.76
1:53 pm 13:53 Mostly Cloudy 85 29.4 79 26.1 82 82 VRB 5 7 29.99 1016 10 16 0.06 1.52
2:53 pm 14:53 Mostly Cloudy 86 30 74 23.3 67 67 SSE 8 13 29.98 1015 10 16 0.03 0.76
3:53 pm 15:53 Mostly Cloudy with Nearby Thunderstorms 88 31.1 75 23.9 66 66 S 6 9 29.97 1015 10 16 0.00 0.00
4:40 pm 16:40 Mostly Sunny 86 30 76 24.4 72 72 WNW 8 13 29.95 1014 10 16 0.00 0.00
4:53 pm 16:53 Mostly Sunny 83 28.3 75 23.9 77 77 WNW 5 7 29.95 1014 10 16 0.00 0.00
5:53 pm 17:53 Partly Cloudy 86 30 76 24.4 72 72 WSW 5 7 29.94 1014 10 16 0.01 0.25
6:53 pm 18:53 Sunny 86 30 75 23.9 70 70 Calm 29.94 1014 10 16 0.00 0.00
7:53 pm 19:53 Sunny 82 27.8 74 23.3 77 77 S 6 9 29.94 1014 10 16 0.00 0.00
8:53 pm 20:53 Clear 81 27.2 75 23.9 82 82 Calm 29.95 1014 10 16 0.00 0.00
9:53 pm 21:53 Clear 80 26.7 74 23.3 82 82 Calm 29.97 1015 10 16 0.00 0.00
10:53 pm 22:53 Clear 78 25.6 72 22.2 82 82 SSW 5 7 29.96 1015 10 16 0.00 0.00
11:53 pm 23:53 Clear 77 25 73 22.8 88 88 S 3 6 29.96 1015 10 16 0.00 0.00

Powered by AerisWeather